Simultaneous Nadir Overpasses (SNOs) Predictions

Prediction of SNOs between GOES-15 and TERRA Satellite Orbit:

Table of predicted SNOs for the next 14.0 days since TLE Epoch: 9/21/2024
Index Date Time (GOES-15) GOES-15 Lat,Lon TERRA Lat,Lon Distance(km) Time Diff (sec)
1 09/22/2024 05:30:54 -0.29, 61.24 -0.63, 62.78 174.64 80
2 09/22/2024 17:48:12 0.30, 61.38 -0.41, 57.92 392.14 80
3 09/24/2024 17:33:04 0.29, 61.37 0.46, 62.22 95.95 80
4 09/25/2024 05:50:13 -0.30, 61.24 0.49, 57.39 437.30 80
5 09/27/2024 05:35:04 -0.29, 61.24 -0.36, 61.69 51.08 80
6 09/29/2024 17:37:13 0.30, 61.37 0.26, 61.13 26.56 80
7 10/01/2024 17:19:23 0.29, 61.37 1.15, 65.43 462.13 80
8 10/02/2024 05:36:30 -0.31, 61.24 -0.15, 60.62 71.35 80
9 10/04/2024 05:21:20 -0.30, 61.24 -1.08, 64.91 417.48 80
10 10/04/2024 17:41:17 0.31, 61.37 0.06, 60.06 147.93 80
